TimeMDT,TemperatureF,Dew PointF,Humidity,Sea Level PressureIn,VisibilityMPH,Wind Direction,Wind SpeedMPH,Gust SpeedMPH,PrecipitationIn,Events,Conditions,WindDirDegrees,DateUTC
12:56 AM,63.0,41.9,46,29.91,10.0,Calm,Calm,-,N/A,,Clear,0,2013-08-21 06:56:00
1:56 AM,59.9,41.9,51,29.92,9.0,North,3.5,-,N/A,,Clear,10,2013-08-21 07:56:00
2:56 AM,54.0,39.9,59,29.93,10.0,Calm,Calm,-,N/A,,Clear,0,2013-08-21 08:56:00
3:56 AM,55.9,41.0,57,29.93,10.0,ENE,8.1,-,N/A,,Clear,70,2013-08-21 09:56:00
4:56 AM,54.0,41.0,62,29.95,10.0,East,4.6,-,N/A,,Clear,90,2013-08-21 10:56:00
5:56 AM,57.9,43.0,58,29.94,10.0,SW,3.5,-,N/A,,Clear,220,2013-08-21 11:56:00
6:56 AM,54.0,41.9,64,29.98,9.0,Calm,Calm,-,N/A,,Clear,0,2013-08-21 12:56:00
7:56 AM,59.9,45.0,58,29.99,9.0,Calm,Calm,-,N/A,,Clear,0,2013-08-21 13:56:00
8:56 AM,70.9,43.9,38,29.99,8.0,Calm,Calm,-,N/A,,Partly Cloudy,0,2013-08-21 14:56:00
9:56 AM,72.9,43.9,35,29.99,10.0,SSW,8.1,-,N/A,,Partly Cloudy,200,2013-08-21 15:56:00
10:56 AM,75.9,45.9,34,30.00,9.0,SW,9.2,-,N/A,,Clear,220,2013-08-21 16:56:00
11:56 AM,75.9,46.9,36,30.00,8.0,SSW,8.1,-,N/A,,Partly Cloudy,210,2013-08-21 17:56:00
12:56 PM,77.0,47.8,36,30.00,9.0,SSW,11.5,-,N/A,,Partly Cloudy,200,2013-08-21 18:56:00
1:56 PM,77.9,46.9,33,30.00,10.0,SSW,9.2,-,0.00,,Scattered Clouds,210,2013-08-21 19:56:00
2:56 PM,77.9,46.9,33,29.99,10.0,Variable,3.5,-,N/A,,Partly Cloudy,0,2013-08-21 20:56:00
3:26 PM,82.4,46.4,28,30.23,9.0,NW,6.9,-,N/A,Thunderstorm,Thunderstorm,320,2013-08-21 21:26:00
3:56 PM,77.9,45.9,32,29.97,9.0,SW,8.1,-,N/A,Thunderstorm,Scattered Clouds,220,2013-08-21 21:56:00
4:32 PM,71.6,53.6,53,30.23,4.0,North,8.1,-,0.00,Rain-Thunderstorm,Light Thunderstorms and Rain,10,2013-08-21 22:32:00
4:56 PM,66.9,54.9,65,30.01,6.0,NE,16.1,23.0,0.00,Thunderstorm,Unknown,50,2013-08-21 22:56:00
5:56 PM,66.9,52.9,61,30.01,9.0,NE,12.7,-,N/A,,Mostly Cloudy,40,2013-08-21 23:56:00
6:56 PM,68.0,52.9,58,30.02,9.0,NNE,11.5,-,N/A,,Clear,30,2013-08-22 00:56:00
7:56 PM,64.9,52.0,63,30.00,8.0,North,8.1,-,N/A,,Clear,10,2013-08-22 01:56:00
8:56 PM,61.9,52.0,70,29.99,10.0,SSE,6.9,-,N/A,,Mostly Cloudy,150,2013-08-22 02:56:00
9:56 PM,61.0,50.9,69,30.01,10.0,ESE,5.8,-,N/A,,Clear,110,2013-08-22 03:56:00
10:56 PM,59.9,50.9,72,30.01,10.0,ENE,5.8,-,N/A,,Partly Cloudy,60,2013-08-22 04:56:00
11:56 PM,61.0,50.9,69,30.00,10.0,East,5.8,-,N/A,,Mostly Cloudy,100,2013-08-22 05:56:00